星链-31545 (STARLINK-31545 )

导读

STARLINK-31545是美国SpaceX星链星座的一颗卫星,于2024年4月5日发射入轨,属于星链网络扩容的一部分。星链项目旨在构建全球卫星互联网星座,为全球偏远地区、海洋等网络覆盖薄弱区域提供高速宽带服务,该卫星的入轨进一步扩大了星链星座的服务覆盖范围与网络容量。

基本信息
目录编号:
59400
目录名称:
STARLINK-31545
国际标识:
2024-064C
轨道中心:
EARTH
卫星名称:
星链-31545
卫星全名:
星链-31545 (STARLINK-31545 )
卫星状态:
在轨 (已飞行890 天)
发射日期:
2024-04-05 UTC
国别 :
美国 (US)
星等 :
--
该卫星已列入 空间交会检测服务 Space Conjunction Data Service (SCDS) ,当前飞行风险评估等级: 高风险
轨道信息
数据来源 国际轨道数据 AOE轨道数据
星历时间 2026-09-11T21:15:46+0800
13小时前
查看轨道信息
2026-09-05T22:00:00+0800
6天前
查看轨道信息
半长轴 6861.193km 6861.19km
偏心率 0.0001226 0.0001495
轨道倾角 43.000° 43.002°
近地点辐角 263.726° 262.303°
升交点赤经 86.296° 120.013°
平近点角 96.345° 352.508°
近地点 482.214km 482.027km
远地点 483.898km 484.079km
周期 94.267分钟 94.267分钟
每日圈数 15.275778 15.275787
详细信息
固有亮度:
5
最大亮度:
0.3
卫星平台:
Starlink v2.0 mini
覆盖范围:
全球
运营商:
太空探索技术公司
运营商所在国:
美国
制造商(研发单位):
太空探索技术公司
制造商所在国:
美国
使用方式:
暂无
卫星简介
星链(Starlink)计划是由太空探索技术公司(SpaceX)提出的一个巨型低轨卫星互联网星座项目,计划在2019年至2024年间在太空搭建由约1.2万颗卫星组成的“星链”网络,其中1584颗将部署在地球上空550千米处的近地轨道,并从2020年开始工作。该卫星仍在工作。
2D轨道图
3D轨道图
轨道高度分析图
轨道倾角分析图
轨道综合分析图
查看轨道综合分析图
交会数据列表
事件ID 空间交会对象 最接近时刻(TCA) 交会距离 交会风险概率(CRP) 交会风险指数(CRI) 操作
CDM_260913-195105-940006-679622
2026-09-13T
19:51:56+0000
1.090 km
极远距离
7.910843E-6 低风险 0.53
CDM_260913-234705-940006-679622
2026-09-13T
23:47:19+0000
1.327 km
极远距离
4.068751E-6 低风险 0.47
CDM_260909-192405-940006-472121
2026-09-09T
19:24:56+0000
2.672 km
极远距离
1.306598E-6 低风险 0.37
CDM_260913-221305-940006-679622
2026-09-13T
22:13:10+0000
2.661 km
极远距离
7.410507E-7 极低风险 0.32
与全量物体交会距离演化趋势
与全量物体交会风险概率演化趋势